Location: Dąbrowa Miętka
(51.3714°N, 18.6370°E)
Time: 21:16:47
(UTC+01:00)

ISS - Pass Details

Date: 24 January 2019
Orbit: 403 x 411 km, 51.6° (Epoch: 21 February)

Event Time Altitude Azimuth Distance (km) Brightness Sun altitude
Rises 17:44:13 0° 202° (SSW) 2,324 0.6 -12.8°
Reaches altitude 10° 17:46:53 10° 178° (S) 1,470 -0.8 -13.2°
Maximum altitude 17:48:54 15° 141° (SE) 1,197 -1.7 -13.5°
Enters shadow 17:49:33 15° 127° (SE) 1,230 -1.8 -13.6°
